Location: Recife
(8.0585°S, 34.8848°W)
Time: 22:04:42
(UTC-03:00)

Vanguard 3 - Pass Details

Date: 18 April 2026
Orbit: 507 x 3205 km, 33.4° (Epoch: 12 May)

Event Time Altitude Azimuth Distance (km) Brightness Sun altitude
Rises 13:04:29 0° 234° (SW) 6,947 12.0 57.5°
Reaches altitude 10° 13:09:56 10° 225° (SW) 6,078 11.8 56.4°
Maximum altitude 13:26:57 35° 166° (SSE) 4,198 10.9 52.9°
Drops below altitude 10° 13:40:56 10° 105° (ESE) 5,059 10.9 49.8°
Sets 13:44:52 0° 96° (E) 5,715 11.1 49.0°
